QPF
0.00 0.00 0.00 0.00 0.00 0.00 0.00 0.00 0.01 0.01 0.03 0.04 0.05 0.05 0.05 0.04 0.04 0.03 0.02 0.01 0.01 0.00 0.00 0.00 0.00 0.00 0.00 0.00 0.01 0.01 0.02 0.02 0.01 0.03 0.09 0.12 0.12 0.12 0.13 0.13 0.11 0.06 0.03
0.00 0.00 0.00 0.00 0.00 0.00 0.00 0.00 0.00 0.00 0.00 0.00 0.01 0.01 0.02 0.03 0.04 0.04 0.04 0.02 0.02 0.01 0.00 0.00 0.00 0.00 0.00 0.00 0.00 0.00 0.01 0.03 0.03 0.04 0.09 0.13 0.11 0.09 0.09 0.09 0.06 0.03 0.01
0.00 0.00 0.00 0.00 0.00 0.00 0.00 0.00 0.00 0.00 0.00 0.00 0.00 0.00 0.00 0.01 0.02 0.03 0.04 0.03 0.03 0.02 0.01 0.01 0.00 0.00 0.00 0.00 0.00 0.00 0.01 0.03 0.06 0.07 0.10 0.14 0.13 0.09 0.07 0.06 0.04 0.03 0.01
0.00 0.00 0.00 0.00 0.00 0.00 0.00 0.00 0.00 0.00 0.00 0.00 0.00 0.00 0.00 0.00 0.01 0.02 0.03 0.04 0.03 0.03 0.03 0.02 0.01 0.00 0.00 0.00 0.00 0.00 0.01 0.02 0.04 0.06 0.11 0.15 0.14 0.09 0.08 0.07 0.05 0.03 0.02
0.00 0.00 0.00 0.00 0.00 0.00 0.00 0.00 0.00 0.00 0.00 0.00 0.00 0.00 0.00 0.00 0.01 0.02 0.03 0.04 0.04 0.03 0.04 0.03 0.01 0.00 0.00 0.00 0.00 0.00 0.00 0.01 0.03 0.06 0.11 0.17 0.16 0.12 0.08 0.05 0.05 0.04 0.03
0.00 0.00 0.00 0.00 0.00 0.00 0.00 0.00 0.01 0.00 0.00 0.00 0.00 0.00 0.00 0.01 0.01 0.02 0.02 0.03 0.05 0.05 0.04 0.03 0.02 0.00 0.00 0.00 0.00 0.00 0.00 0.01 0.02 0.05 0.11 0.19 0.21 0.15 0.10 0.08 0.06 0.04 0.04
0.00 0.00 0.00 0.00 0.00 0.00 0.00 0.01 0.01 0.01 0.01 0.01 0.01 0.01 0.00 0.01 0.01 0.01 0.02 0.03 0.05 0.06 0.06 0.04 0.03 0.01 0.00 0.00 0.00 0.00 0.00 0.01 0.02 0.04 0.09 0.14 0.19 0.19 0.16 0.14 0.08 0.05 0.04
0.00 0.00 0.00 0.00 0.00 0.00 0.00 0.00 0.01 0.01 0.01 0.01 0.01 0.01 0.00 0.00 0.00 0.01 0.02 0.04 0.06 0.07 0.07 0.06 0.04 0.02 0.00 0.00 0.00 0.00 0.00 0.01 0.02 0.04 0.09 0.15 0.19 0.20 0.17 0.14 0.10 0.07 0.05
0.00 0.01 0.01 0.01 0.01 0.00 0.00 0.01 0.01 0.01 0.01 0.01 0.01 0.01 0.01 0.00 0.01 0.01 0.01 0.04 0.07 0.08 0.09 0.09 0.06 0.03 0.01 0.00 0.00 0.00 0.00 0.00 0.02 0.04 0.08 0.14 0.18 0.16 0.11 0.09 0.09 0.07 0.05
0.02 0.03 0.02 0.02 0.02 0.01 0.01 0.01 0.01 0.01 0.01 0.01 0.00 0.01 0.01 0.01 0.01 0.01 0.01 0.03 0.06 0.09 0.11 0.12 0.10 0.05 0.02 0.00 0.00 0.00 0.00 0.00 0.01 0.02 0.03 0.06 0.07 0.08 0.08 0.06 0.04 0.03 0.02
0.05 0.05 0.04 0.04 0.03 0.02 0.01 0.01 0.01 0.01 0.00 0.01 0.00 0.00 0.01 0.01 0.00 0.00 0.00 0.03 0.06 0.11 0.15 0.16 0.14 0.09 0.04 0.01 0.01 0.00 0.00 0.00 0.00 0.00 0.01 0.01 0.02 0.02 0.02 0.03 0.02 0.01 0.01
0.06 0.05 0.04 0.03 0.03 0.02 0.02 0.01 0.01 0.01 0.01 0.01 0.00 0.00 0.00 0.00 0.00 0.00 0.00 0.02 0.06 0.11 0.19 0.23 0.18 0.13 0.07 0.03 0.01 0.00 0.00 0.00 0.00 0.00 0.00 0.01 0.01 0.01 0.01 0.01 0.01 0.01 0.00
0.07 0.06 0.04 0.04 0.03 0.03 0.03 0.02 0.01 0.01 0.01 0.01 0.01 0.01 0.01 0.01 0.01 0.00 0.00 0.01 0.05 0.11 0.21 0.31 0.27 0.18 0.10 0.05 0.02 0.00 0.00 0.00 0.00 0.00 0.00 0.00 0.00 0.00 0.00 0.00 0.00 0.00 0.00
0.08 0.06 0.05 0.05 0.05 0.05 0.04 0.04 0.02 0.01 0.01 0.01 0.01 0.01 0.01 0.02 0.02 0.01 0.00 0.01 0.05 0.11 0.21 0.34 0.38 0.27 0.15 0.07 0.03 0.01 0.00 0.00 0.00 0.00 0.00 0.00 0.00 0.00 0.00 0.00 0.00 0.00 0.00
0.08 0.07 0.07 0.08 0.07 0.06 0.06 0.05 0.03 0.02 0.02 0.01 0.01 0.02 0.02 0.02 0.02 0.02 0.02 0.03 0.04 0.11 0.23 0.38 0.48 0.37 0.21 0.09 0.03 0.01 0.00 0.00 0.00 0.00 0.00 0.00 0.00 0.00 0.00 0.00 0.00 0.00 0.00
0.08 0.07 0.07 0.07 0.07 0.07 0.06 0.04 0.03 0.01 0.01 0.01 0.01 0.01 0.01 0.01 0.01 0.01 0.03 0.04 0.05 0.10 0.24 0.40 0.50 0.40 0.21 0.09 0.02 0.01 0.00 0.00 0.00 0.00 0.00 0.00 0.00 0.00 0.00 0.00 0.00 0.00 0.00
0.07 0.07 0.07 0.06 0.06 0.05 0.04 0.03 0.02 0.01 0.01 0.00 0.01 0.01 0.01 0.01 0.01 0.01 0.03 0.05 0.07 0.09 0.18 0.31 0.38 0.33 0.17 0.07 0.02 0.00 0.00 0.00 0.00 0.00 0.00 0.00 0.00 0.00 0.00 0.00 0.00 0.00 0.00
0.05 0.06 0.06 0.04 0.04 0.03 0.03 0.02 0.02 0.03 0.02 0.01 0.01 0.01 0.01 0.01 0.01 0.02 0.07 0.09 0.09 0.09 0.12 0.18 0.23 0.21 0.11 0.05 0.02 0.00 0.00 0.00 0.00 0.00 0.00 0.00 0.00 0.00 0.00 0.00 0.00 0.00 0.00
0.05 0.04 0.03 0.03 0.02 0.02 0.02 0.02 0.02 0.03 0.03 0.03 0.02 0.01 0.01 0.01 0.01 0.05 0.12 0.12 0.10 0.09 0.08 0.10 0.12 0.09 0.05 0.02 0.01 0.00 0.00 0.00 0.00 0.00 0.00 0.00 0.00 0.00 0.00 0.00 0.00 0.00 0.00
0.04 0.03 0.02 0.01 0.02 0.02 0.01 0.01 0.01 0.02 0.04 0.04 0.03 0.01 0.01 0.01 0.02 0.08 0.16 0.14 0.09 0.07 0.06 0.05 0.04 0.02 0.01 0.01 0.00 0.00 0.00 0.00 0.00 0.00 0.00 0.00 0.00 0.00 0.00 0.00 0.00 0.00 0.00
0.03 0.02 0.01 0.00 0.01 0.01 0.01 0.01 0.02 0.03 0.05 0.07 0.05 0.02 0.01 0.01 0.03 0.08 0.15 0.12 0.08 0.06 0.03 0.02 0.01 0.00 0.00 0.00 0.00 0.00 0.00 0.00 0.00 0.00 0.00 0.00 0.00 0.00 0.00 0.00 0.00 0.00 0.00
0.03 0.01 0.01 0.01 0.01 0.01 0.01 0.01 0.02 0.05 0.07 0.07 0.04 0.02 0.01 0.03 0.04 0.08 0.11 0.09 0.06 0.04 0.02 0.01 0.01 0.01 0.00 0.00 0.00 0.00 0.00 0.00 0.00 0.00 0.00 0.00 0.00 0.00 0.00 0.00 0.00 0.00 0.00
0.04 0.02 0.01 0.01 0.01 0.00 0.01 0.01 0.03 0.04 0.05 0.04 0.02 0.01 0.02 0.03 0.04 0.06 0.07 0.07 0.05 0.03 0.02 0.01 0.01 0.01 0.00 0.00 0.00 0.00 0.00 0.00 0.00 0.00 0.00 0.00 0.00 0.00 0.00 0.00 0.00 0.00 0.00
0.06 0.03 0.02 0.01 0.01 0.01 0.01 0.01 0.01 0.01 0.02 0.01 0.01 0.01 0.02 0.03 0.03 0.02 0.03 0.03 0.02 0.02 0.02 0.02 0.01 0.00 0.00 0.00 0.00 0.00 0.00 0.00 0.00 0.00 0.00 0.00 0.00 0.00 0.00 0.00 0.00 0.00 0.00
0.08 0.06 0.03 0.01 0.00 0.00 0.00 0.00 0.00 0.00 0.00 0.01 0.00 0.01 0.02 0.02 0.01 0.01 0.01 0.01 0.01 0.02 0.02 0.01 0.00 0.00 0.00 0.00 0.00 0.00 0.00 0.00 0.00 0.00 0.00 0.00 0.00 0.00 0.00 0.00 0.00 0.00 0.00
0.07 0.07 0.05 0.02 0.01 0.00 0.00 0.00 0.00 0.00 0.00 0.00 0.00 0.00 0.00 0.00 0.00 0.01 0.01 0.01 0.01 0.01 0.01 0.00 0.00 0.00 0.00 0.00 0.00 0.00 0.00 0.00 0.00 0.00 0.00 0.00 0.00 0.00 0.00 0.00 0.00 0.00 0.00
MSLP
1011.52 1011.52 1011.56 1011.58 1011.55 1011.45 1011.26 1010.99 1010.67 1010.30 1009.92 1009.55 1009.19 1008.85 1008.52 1008.19 1007.87 1007.56 1007.26 1007.00 1006.81 1006.69 1006.66 1006.72 1006.85 1007.05 1007.26 1007.47 1007.64 1007.75 1007.79 1007.78 1007.72 1007.65 1007.59 1007.58 1007.63 1007.76 1007.98 1008.27 1008.63 1009.03 1009.46
1010.74 1010.72 1010.76 1010.81 1010.84 1010.82 1010.74 1010.59 1010.37 1010.11 1009.81 1009.48 1009.14 1008.79 1008.42 1008.05 1007.67 1007.29 1006.94 1006.63 1006.38 1006.21 1006.14 1006.15 1006.24 1006.39 1006.56 1006.74 1006.90 1007.02 1007.10 1007.15 1007.19 1007.24 1007.32 1007.46 1007.66 1007.94 1008.30 1008.72 1009.18 1009.67 1010.15
1009.82 1009.77 1009.79 1009.85 1009.92 1009.97 1009.98 1009.93 1009.84 1009.69 1009.49 1009.24 1008.95 1008.62 1008.26 1007.86 1007.45 1007.03 1006.64 1006.29 1006.00 1005.80 1005.68 1005.65 1005.69 1005.79 1005.92 1006.06 1006.19 1006.31 1006.41 1006.50 1006.61 1006.75 1006.94 1007.21 1007.56 1007.98 1008.48 1009.03 1009.61 1010.20 1010.77
1008.83 1008.73 1008.71 1008.75 1008.83 1008.92 1009.00 1009.06 1009.07 1009.04 1008.95 1008.81 1008.59 1008.31 1007.98 1007.59 1007.17 1006.74 1006.33 1005.96 1005.65 1005.42 1005.27 1005.21 1005.22 1005.28 1005.37 1005.47 1005.57 1005.66 1005.76 1005.87 1006.01 1006.20 1006.48 1006.84 1007.29 1007.84 1008.46 1009.13 1009.84 1010.54 1011.21
1007.83 1007.67 1007.59 1007.60 1007.66 1007.76 1007.89 1008.02 1008.13 1008.20 1008.22 1008.18 1008.05 1007.84 1007.55 1007.19 1006.79 1006.37 1005.96 1005.58 1005.27 1005.03 1004.88 1004.81 1004.80 1004.83 1004.90 1004.97 1005.04 1005.10 1005.18 1005.28 1005.43 1005.65 1005.96 1006.38 1006.90 1007.53 1008.25 1009.03 1009.85 1010.66 1011.44
1006.90 1006.66 1006.51 1006.45 1006.48 1006.57 1006.71 1006.88 1007.06 1007.22 1007.33 1007.38 1007.34 1007.20 1006.97 1006.65 1006.28 1005.88 1005.48 1005.13 1004.83 1004.61 1004.47 1004.41 1004.40 1004.44 1004.49 1004.55 1004.60 1004.65 1004.70 1004.79 1004.92 1005.14 1005.46 1005.90 1006.46 1007.14 1007.92 1008.77 1009.67 1010.58 1011.46
1006.07 1005.76 1005.53 1005.40 1005.36 1005.42 1005.55 1005.73 1005.95 1006.17 1006.35 1006.47 1006.49 1006.42 1006.24 1005.97 1005.63 1005.27 1004.90 1004.57 1004.31 1004.12 1004.01 1003.98 1004.00 1004.06 1004.13 1004.19 1004.25 1004.29 1004.34 1004.41 1004.54 1004.75 1005.06 1005.50 1006.07 1006.76 1007.57 1008.46 1009.41 1010.38 1011.33
1005.37 1004.99 1004.69 1004.48 1004.38 1004.38 1004.48 1004.65 1004.87 1005.11 1005.33 1005.49 1005.56 1005.53 1005.40 1005.17 1004.88 1004.55 1004.22 1003.94 1003.72 1003.57 1003.51 1003.52 1003.59 1003.68 1003.79 1003.88 1003.97 1004.03 1004.10 1004.19 1004.32 1004.53 1004.84 1005.27 1005.83 1006.52 1007.32 1008.21 1009.17 1010.16 1011.14
1004.81 1004.37 1004.00 1003.72 1003.54 1003.48 1003.53 1003.67 1003.88 1004.11 1004.33 1004.51 1004.60 1004.60 1004.50 1004.32 1004.06 1003.78 1003.50 1003.27 1003.09 1003.00 1002.99 1003.05 1003.16 1003.31 1003.46 1003.62 1003.75 1003.87 1003.98 1004.11 1004.28 1004.52 1004.84 1005.27 1005.82 1006.48 1007.25 1008.11 1009.04 1010.00 1010.97
1004.35 1003.86 1003.43 1003.08 1002.85 1002.73 1002.72 1002.81 1002.98 1003.18 1003.39 1003.56 1003.67 1003.68 1003.61 1003.47 1003.26 1003.03 1002.81 1002.62 1002.51 1002.46 1002.50 1002.60 1002.77 1002.96 1003.17 1003.38 1003.58 1003.77 1003.96 1004.16 1004.40 1004.69 1005.06 1005.51 1006.05 1006.69 1007.42 1008.22 1009.07 1009.97 1010.87
1003.95 1003.42 1002.94 1002.55 1002.25 1002.08 1002.02 1002.06 1002.18 1002.34 1002.52 1002.68 1002.78 1002.82 1002.78 1002.68 1002.53 1002.36 1002.21 1002.08 1002.02 1002.02 1002.10 1002.24 1002.43 1002.67 1002.92 1003.19 1003.46 1003.73 1004.01 1004.31 1004.64 1005.02 1005.44 1005.93 1006.49 1007.11 1007.78 1008.50 1009.27 1010.06 1010.86
1003.57 1003.00 1002.49 1002.05 1001.72 1001.50 1001.39 1001.38 1001.45 1001.58 1001.72 1001.86 1001.97 1002.03 1002.04 1002.00 1001.92 1001.83 1001.74 1001.68 1001.67 1001.72 1001.82 1001.99 1002.20 1002.45 1002.73 1003.04 1003.37 1003.72 1004.10 1004.50 1004.94 1005.41 1005.92 1006.47 1007.05 1007.65 1008.28 1008.92 1009.58 1010.25 1010.92
1003.15 1002.56 1002.03 1001.58 1001.22 1000.96 1000.81 1000.76 1000.79 1000.87 1000.99 1001.12 1001.25 1001.34 1001.40 1001.43 1001.44 1001.43 1001.43 1001.45 1001.49 1001.57 1001.70 1001.86 1002.07 1002.32 1002.60 1002.93 1003.30 1003.72 1004.18 1004.68 1005.23 1005.80 1006.40 1007.01 1007.62 1008.23 1008.81 1009.38 1009.94 1010.48 1011.02
1002.71 1002.10 1001.56 1001.10 1000.73 1000.45 1000.27 1000.18 1000.18 1000.23 1000.33 1000.46 1000.60 1000.74 1000.86 1000.98 1001.08 1001.17 1001.26 1001.35 1001.45 1001.57 1001.70 1001.86 1002.04 1002.27 1002.54 1002.87 1003.25 1003.71 1004.23 1004.81 1005.45 1006.11 1006.79 1007.47 1008.12 1008.73 1009.29 1009.81 1010.28 1010.72 1011.14
1002.24 1001.64 1001.10 1000.65 1000.27 999.99 999.79 999.67 999.64 999.67 999.75 999.88 1000.04 1000.22 1000.41 1000.61 1000.80 1000.99 1001.17 1001.34 1001.50 1001.64 1001.78 1001.93 1002.09 1002.28 1002.51 1002.82 1003.20 1003.67 1004.23 1004.87 1005.56 1006.30 1007.05 1007.78 1008.47 1009.09 1009.65 1010.13 1010.54 1010.91 1011.26
1001.79 1001.21 1000.69 1000.25 999.89 999.61 999.40 999.26 999.20 999.21 999.28 999.40 999.58 999.79 1000.04 1000.31 1000.58 1000.86 1001.12 1001.36 1001.56 1001.74 1001.88 1002.01 1002.15 1002.30 1002.51 1002.78 1003.15 1003.61 1004.18 1004.84 1005.57 1006.35 1007.15 1007.92 1008.64 1009.28 1009.84 1010.32 1010.71 1011.05 1011.36
1001.41 1000.86 1000.38 999.96 999.62 999.35 999.14 998.99 998.90 998.89 998.93 999.05 999.22 999.45 999.74 1000.05 1000.39 1000.73 1001.05 1001.34 1001.59 1001.79 1001.94 1002.07 1002.19 1002.32 1002.49 1002.74 1003.08 1003.53 1004.09 1004.76 1005.50 1006.30 1007.11 1007.91 1008.66 1009.32 1009.90 1010.39 1010.80 1011.15 1011.46
1001.12 1000.61 1000.18 999.80 999.49 999.23 999.03 998.87 998.77 998.73 998.75 998.83 998.99 999.22 999.51 999.85 1000.21 1000.58 1000.94 1001.27 1001.54 1001.76 1001.93 1002.06 1002.17 1002.29 1002.45 1002.68 1003.01 1003.44 1003.99 1004.65 1005.39 1006.18 1007.00 1007.81 1008.56 1009.25 1009.85 1010.37 1010.82 1011.20 1011.55
1000.94 1000.48 1000.10 999.77 999.50 999.26 999.07 998.91 998.80 998.73 998.72 998.78 998.91 999.11 999.38 999.70 1000.06 1000.44 1000.80 1001.14 1001.43 1001.66 1001.84 1001.98 1002.10 1002.23 1002.39 1002.62 1002.94 1003.37 1003.90 1004.54 1005.27 1006.05 1006.86 1007.65 1008.41 1009.11 1009.74 1010.30 1010.79 1011.23 1011.64
1000.84 1000.44 1000.10 999.83 999.60 999.40 999.22 999.08 998.96 998.88 998.84 998.87 998.96 999.13 999.36 999.65 999.97 1000.32 1000.67 1000.99 1001.27 1001.51 1001.70 1001.85 1001.99 1002.13 1002.31 1002.55 1002.88 1003.31 1003.85 1004.47 1005.18 1005.94 1006.72 1007.50 1008.25 1008.95 1009.60 1010.19 1010.72 1011.21 1011.68
1000.78 1000.43 1000.15 999.92 999.74 999.58 999.44 999.31 999.20 999.12 999.07 999.08 999.14 999.27 999.45 999.69 999.97 1000.27 1000.57 1000.86 1001.12 1001.35 1001.53 1001.70 1001.85 1002.03 1002.23 1002.50 1002.85 1003.29 1003.82 1004.44 1005.13 1005.86 1006.61 1007.37 1008.10 1008.79 1009.44 1010.04 1010.61 1011.14 1011.64
1000.72 1000.41 1000.17 999.99 999.85 999.73 999.63 999.54 999.46 999.39 999.36 999.36 999.40 999.50 999.65 999.84 1000.06 1000.31 1000.56 1000.80 1001.03 1001.23 1001.41 1001.57 1001.74 1001.94 1002.17 1002.47 1002.84 1003.30 1003.83 1004.44 1005.11 1005.82 1006.54 1007.26 1007.96 1008.63 1009.27 1009.87 1010.43 1010.98 1011.50
1000.64 1000.35 1000.14 999.99 999.88 999.81 999.75 999.70 999.66 999.63 999.63 999.65 999.70 999.79 999.91 1000.07 1000.25 1000.44 1000.64 1000.83 1001.01 1001.18 1001.34 1001.50 1001.67 1001.88 1002.14 1002.46 1002.85 1003.32 1003.86 1004.46 1005.11 1005.79 1006.48 1007.16 1007.82 1008.46 1009.06 1009.64 1010.18 1010.71 1011.22
1000.54 1000.25 1000.04 999.91 999.82 999.78 999.76 999.76 999.77 999.79 999.83 999.89 999.97 1000.07 1000.19 1000.33 1000.49 1000.64 1000.80 1000.94 1001.08 1001.21 1001.34 1001.49 1001.66 1001.87 1002.14 1002.47 1002.88 1003.35 1003.89 1004.49 1005.12 1005.76 1006.42 1007.06 1007.67 1008.26 1008.82 1009.34 1009.85 1010.33 1010.80
1000.46 1000.14 999.92 999.78 999.70 999.67 999.68 999.71 999.77 999.85 999.94 1000.05 1000.17 1000.30 1000.45 1000.59 1000.73 1000.87 1000.99 1001.10 1001.20 1001.30 1001.41 1001.53 1001.69 1001.90 1002.17 1002.50 1002.91 1003.39 1003.92 1004.50 1005.10 1005.72 1006.33 1006.93 1007.49 1008.02 1008.52 1008.99 1009.43 1009.85 1010.26
1000.44 1000.09 999.84 999.66 999.57 999.53 999.55 999.61 999.70 999.82 999.96 1000.11 1000.28 1000.45 1000.63 1000.79 1000.94 1001.07 1001.18 1001.28 1001.36 1001.43 1001.51 1001.62 1001.77 1001.97 1002.23 1002.56 1002.96 1003.43 1003.94 1004.50 1005.08 1005.66 1006.23 1006.77 1007.28 1007.75 1008.18 1008.58 1008.95 1009.31 1009.64
Thickness
5612 5612 5610 5609 5610 5610 5610 5613 5616 5621 5626 5631 5635 5641 5647 5654 5661 5665 5670 5674 5675 5678 5681 5683 5685 5687 5688 5690 5692 5691 5690 5688 5685 5683 5684 5684 5683 5680 5678 5679 5679 5679 5679
5589 5588 5587 5586 5586 5587 5589 5592 5596 5600 5605 5610 5616 5622 5628 5635 5642 5649 5656 5663 5667 5670 5674 5677 5679 5682 5683 5685 5686 5686 5686 5686 5684 5681 5679 5678 5676 5674 5671 5669 5669 5668 5668
5572 5568 5566 5564 5563 5564 5566 5570 5574 5579 5584 5590 5595 5601 5608 5616 5623 5631 5640 5649 5656 5662 5667 5670 5674 5676 5677 5680 5681 5682 5682 5684 5683 5680 5677 5675 5671 5667 5664 5661 5659 5658 5657
5564 5559 5555 5553 5551 5550 5550 5552 5554 5558 5562 5568 5574 5581 5588 5596 5604 5613 5623 5633 5642 5650 5658 5663 5668 5671 5673 5675 5677 5678 5679 5680 5680 5679 5676 5672 5666 5662 5659 5654 5650 5649 5648
5561 5555 5552 5550 5548 5545 5543 5543 5543 5544 5547 5550 5555 5560 5567 5575 5586 5596 5605 5616 5626 5636 5646 5654 5661 5666 5669 5671 5673 5674 5676 5677 5679 5678 5675 5669 5663 5658 5653 5650 5646 5642 5638
5556 5552 5549 5546 5543 5541 5540 5539 5537 5537 5538 5540 5542 5545 5550 5559 5568 5578 5587 5599 5610 5621 5632 5642 5650 5657 5662 5665 5669 5671 5674 5675 5677 5676 5674 5668 5662 5656 5651 5646 5642 5639 5632
5549 5546 5543 5540 5538 5536 5536 5534 5532 5532 5533 5534 5536 5538 5540 5545 5551 5559 5569 5581 5594 5606 5619 5630 5640 5647 5652 5656 5660 5665 5669 5673 5676 5676 5673 5668 5661 5655 5650 5642 5637 5635 5631
5535 5534 5532 5530 5529 5528 5527 5526 5525 5525 5526 5527 5530 5533 5535 5539 5542 5546 5553 5563 5576 5591 5606 5618 5629 5637 5642 5647 5651 5655 5660 5666 5670 5672 5670 5665 5659 5652 5647 5641 5633 5626 5621
5515 5515 5515 5516 5516 5516 5516 5517 5517 5517 5519 5521 5524 5527 5530 5533 5537 5539 5542 5547 5559 5575 5592 5606 5618 5627 5634 5639 5643 5646 5651 5656 5661 5663 5662 5657 5651 5645 5640 5634 5627 5621 5613
5492 5493 5495 5498 5501 5503 5505 5507 5508 5510 5512 5515 5518 5521 5525 5529 5533 5535 5536 5538 5546 5561 5577 5594 5607 5617 5624 5630 5634 5638 5642 5647 5651 5651 5649 5645 5641 5636 5632 5630 5625 5619 5611
5475 5475 5477 5480 5484 5488 5492 5496 5498 5501 5504 5507 5511 5516 5521 5525 5529 5532 5533 5533 5538 5548 5563 5581 5596 5606 5614 5620 5625 5630 5636 5639 5641 5641 5639 5635 5631 5627 5625 5623 5621 5618 5611
5466 5465 5465 5466 5470 5477 5480 5484 5488 5491 5495 5499 5503 5509 5515 5520 5526 5529 5531 5532 5535 5541 5555 5570 5585 5595 5603 5609 5616 5620 5625 5630 5632 5631 5629 5625 5622 5620 5618 5618 5617 5615 5613
5461 5458 5457 5458 5460 5465 5469 5474 5479 5483 5487 5492 5497 5502 5509 5515 5520 5526 5528 5530 5532 5537 5547 5561 5576 5585 5592 5598 5605 5609 5615 5621 5622 5622 5619 5616 5615 5614 5613 5612 5610 5609 5606
5458 5456 5454 5454 5455 5458 5462 5468 5473 5478 5482 5487 5492 5497 5503 5508 5515 5520 5523 5526 5528 5533 5540 5552 5565 5574 5582 5589 5594 5600 5607 5612 5615 5613 5610 5607 5607 5606 5606 5607 5604 5603 5599
5458 5455 5453 5452 5453 5456 5459 5464 5469 5474 5479 5483 5488 5493 5498 5504 5513 5518 5520 5523 5525 5529 5534 5543 5555 5565 5574 5580 5586 5592 5598 5603 5604 5603 5603 5601 5599 5598 5597 5598 5598 5598 5596
5460 5455 5452 5451 5452 5454 5457 5462 5466 5470 5476 5480 5485 5490 5496 5503 5509 5513 5516 5520 5522 5524 5530 5538 5549 5560 5568 5575 5580 5584 5589 5594 5597 5597 5597 5595 5593 5592 5589 5590 5592 5592 5591
5463 5457 5454 5452 5453 5454 5456 5459 5463 5467 5473 5477 5481 5486 5492 5498 5504 5507 5510 5513 5515 5519 5527 5535 5545 5553 5560 5567 5573 5579 5583 5587 5590 5591 5591 5590 5589 5586 5585 5584 5585 5584 5584
5470 5465 5460 5456 5455 5455 5457 5460 5463 5466 5469 5472 5476 5482 5488 5493 5497 5500 5503 5506 5510 5515 5523 5531 5539 5547 5554 5561 5567 5573 5578 5581 5583 5585 5585 5585 5584 5582 5581 5580 5580 5580 5578
5479 5474 5468 5464 5461 5461 5462 5464 5467 5470 5472 5473 5475 5478 5482 5486 5489 5493 5498 5504 5509 5514 5519 5527 5535 5542 5550 5557 5563 5569 5574 5576 5578 5579 5580 5581 5580 5579 5577 5577 5576 5577 5575
5489 5487 5482 5476 5472 5471 5471 5472 5473 5475 5475 5476 5477 5479 5481 5484 5487 5490 5495 5501 5507 5512 5518 5526 5534 5541 5548 5555 5560 5565 5569 5572 5573 5575 5576 5576 5576 5576 5575 5574 5574 5573 5573
5498 5495 5495 5488 5484 5482 5481 5481 5482 5482 5482 5482 5481 5482 5484 5487 5490 5493 5497 5501 5506 5512 5519 5527 5534 5542 5549 5555 5561 5564 5567 5569 5570 5572 5573 5573 5574 5573 5573 5573 5573 5573 5572
5507 5505 5502 5498 5495 5493 5491 5491 5491 5491 5490 5488 5486 5485 5486 5489 5492 5496 5499 5504 5509 5515 5522 5530 5538 5547 5553 5559 5562 5564 5566 5567 5569 5570 5571 5572 5572 5572 5572 5571 5570 5570 5569
5517 5514 5511 5508 5505 5504 5502 5500 5499 5497 5495 5493 5492 5492 5492 5495 5498 5501 5505 5510 5515 5520 5527 5535 5543 5549 5556 5561 5564 5566 5567 5568 5570 5571 5571 5571 5571 5571 5571 5570 5569 5567 5566
5529 5525 5521 5517 5515 5512 5510 5509 5507 5505 5503 5501 5500 5500 5501 5504 5506 5509 5512 5517 5521 5526 5532 5539 5547 5554 5559 5562 5564 5567 5569 5571 5572 5573 5573 5572 5571 5570 5570 5570 5568 5567 5565
5543 5538 5532 5527 5524 5521 5519 5518 5517 5515 5513 5512 5511 5511 5512 5514 5515 5517 5520 5523 5528 5532 5538 5545 5551 5557 5561 5565 5567 5570 5571 5573 5574 5574 5574 5573 5572 5571 5570 5569 5567 5565 5562
5556 5551 5545 5540 5535 5532 5529 5527 5526 5525 5524 5523 5523 5522 5523 5524 5525 5526 5529 5531 5534 5538 5544 5550 5556 5561 5565 5568 5570 5572 5572 5573 5574 5575 5575 5573 5571 5570 5569 5567 5565 5563 5561